{"data":{"norad_id":66533,"epoch":"2026-09-20T22:27:08.723232Z","epoch_age_seconds":51514,"freshness":"FRESH","line1":"1 66533U 25265T   26263.93551763  .00014925  00000+0  55062-3 0  9992","line2":"2 66533  42.9952 255.2978 0000269 206.7786 153.3051 15.27589603 46977","mean_motion":15.27589603,"eccentricity":2.69e-5,"inclination_deg":42.9952,"raan_deg":255.2978,"arg_perigee_deg":206.7786,"mean_anomaly_deg":153.3051,"bstar":0.00055062,"rev_number":4697,"period_min":94.266156117587,"perigee_km":482.83577622115,"apogee_km":483.20490648611,"semimajor_km":6861.1573413536,"source":"CELESTRAK","updated_at":"2026-09-21T09:00:35.966767Z"}}